EHI
0 0 0 0 0 1 1 1 0 0 0 0 0 0 0 0 0 0 0 1 3 3 4 4 4 2 1 1 0 0 0 1 2 2 1 1 2 2 1 0 0 0 0
0 0 0 0 0 0 1 2 1 0 0 0 0 0 0 0 0 0 0 1 3 3 4 6 4 2 2 2 1 1 0 0 1 1 0 0 1 1 0 0 0 0 0
0 0 1 0 0 1 2 3 2 1 1 1 1 0 0 0 0 0 0 1 2 2 4 6 5 3 3 3 3 2 1 1 1 1 0 0 0 0 0 0 0 0 0
0 0 0 0 0 2 3 3 3 3 2 2 1 0 0 0 0 0 0 0 0 0 1 3 4 4 3 3 3 3 3 2 2 2 1 0 0 0 0 0 0 0 0
0 1 1 0 0 1 2 3 4 3 2 2 1 0 0 0 0 0 0 0 0 0 0 1 2 3 2 3 3 3 3 3 3 2 1 1 0 0 0 0 0 0 0
1 1 1 0 0 0 1 1 2 1 0 0 0 0 0 0 0 0 0 0 0 0 0 0 1 1 1 1 2 2 2 3 3 3 2 1 1 1 1 0 0 0 0
1 1 1 0 0 0 0 0 0 0 0 0 0 0 0 0 0 0 0 0 0 0 0 0 0 0 0 0 0 0 1 3 4 3 3 2 2 2 2 1 0 0 0
2 1 0 0 0 0 0 0 0 0 0 0 0 0 0 0 0 0 0 0 0 0 0 0 0 0 0 0 0 0 1 3 3 3 3 3 2 2 2 1 0 0 0
3 2 1 0 0 0 0 0 0 0 0 0 0 0 0 0 0 0 0 0 0 0 0 0 0 0 0 0 0 0 1 2 2 1 2 3 2 2 2 1 0 0 0
3 3 2 1 1 0 0 0 1 1 1 1 1 1 1 1 0 0 0 0 0 0 0 0 0 0 0 0 0 0 0 0 0 0 1 1 1 2 2 1 0 0 0
3 3 1 0 0 0 1 1 2 2 2 3 2 1 1 1 1 0 0 0 0 0 0 0 0 0 0 0 0 0 0 0 0 0 0 0 0 1 1 0 0 0 0
3 2 1 0 0 0 1 2 3 3 3 3 2 1 1 1 1 1 0 0 0 0 0 0 0 0 0 0 0 0 0 0 0 0 0 0 0 0 0 0 0 0 0
2 1 1 1 1 1 1 3 3 3 3 3 2 1 1 1 1 1 1 1 0 0 0 0 0 0 0 0 0 0 0 0 0 0 0 0 1 0 0 0 0 0 0
2 1 1 2 2 2 2 3 3 3 3 3 2 1 1 2 2 2 2 2 1 0 0 0 0 0 0 0 0 0 0 0 0 0 0 0 0 0 0 0 0 0 0
1 0 1 2 2 2 3 4 3 3 3 3 2 1 1 1 1 1 2 2 1 0 0 0 0 0 0 1 0 0 0 1 0 0 0 0 0 0 0 0 0 0 0
1 1 1 1 1 1 2 4 4 3 3 3 2 1 0 0 0 0 1 1 1 0 0 0 0 0 0 1 1 0 1 1 0 0 0 0 0 0 0 0 0 0 0
2 2 2 1 1 1 2 4 5 4 3 3 2 1 0 0 0 0 0 0 0 0 0 0 0 0 0 1 1 2 2 2 1 0 0 0 0 0 0 0 0 0 0
3 3 2 3 4 4 4 4 5 5 4 2 1 0 0 0 0 0 0 0 0 0 0 0 0 0 0 1 2 2 2 2 1 0 0 0 0 0 0 0 0 0 0
2 2 2 4 5 5 4 3 3 4 3 2 1 1 1 0 0 0 0 0 0 0 0 0 1 0 0 0 1 1 1 1 1 0 0 0 0 0 0 0 0 0 0
1 1 1 2 3 3 2 1 1 2 2 1 1 1 1 0 0 0 0 0 0 0 0 0 0 0 0 0 0 0 0 0 0 0 0 0 0 0 0 0 0 0 0
1 0 0 0 1 1 0 0 0 1 1 0 0 1 1 0 0 0 0 0 0 0 0 0 0 0 0 0 0 1 1 1 1 1 1 1 0 0 0 0 0 0 0
1 0 0 0 0 0 0 0 0 0 0 0 0 0 0 0 0 0 0 0 0 0 0 0 0 0 0 0 1 2 2 2 2 2 2 2 1 0 0 0 0 0 0
1 0 0 0 0 0 0 0 0 0 0 0 0 0 0 0 0 0 0 0 0 0 0 0 0 0 0 1 2 3 3 3 3 3 3 3 2 1 0 0 0 0 0
0 0 0 0 0 0 0 0 0 0 0 0 0 0 0 0 0 0 0 0 0 0 0 0 0 0 0 1 2 3 3 3 3 3 3 3 2 1 0 0 0 0 0
0 0 0 0 0 0 0 0 0 0 0 0 0 0 0 0 0 0 0 0 0 0 0 0 0 0 0 0 1 3 3 3 3 3 3 3 2 1 0 0 0 0 0
0 0 0 0 0 0 0 0 0 0 0 0 0 0 0 0 0 0 0 0 0 0 0 0 0 0 0 0 1 2 3 3 3 3 3 3 1 0 0 0 0 0 0
Wind_Speed
1 1 2 2 2 2 2 2 2 2 2 2 1 2 2 2 2 2 1 4 5 5 6 6 7 7 8 8 7 8 8 8 9 9 9 10 11 11 11 11 11 11 10
1 1 1 2 2 1 1 1 2 2 1 1 1 1 1 1 2 2 1 2 3 4 5 6 6 7 7 7 7 8 8 8 7 7 8 9 10 10 11 11 10 10 9
1 1 1 1 1 1 1 1 2 2 1 1 1 1 1 1 1 1 1 1 1 2 4 5 6 6 7 8 8 8 8 8 8 7 7 7 8 9 10 11 10 9 9
2 2 1 1 1 1 1 1 1 1 1 1 1 1 1 1 1 1 1 1 1 1 2 3 3 4 5 6 7 8 8 7 8 8 8 7 8 8 9 10 10 10 10
1 1 1 1 1 1 1 1 2 1 1 1 1 1 0 0 1 1 1 1 1 1 1 1 3 3 4 5 5 6 7 7 8 8 8 8 8 8 9 9 9 9 9
1 1 1 1 1 1 2 1 2 2 1 1 1 1 1 0 0 1 1 1 1 2 1 2 2 3 4 4 4 5 6 6 7 7 8 8 8 8 8 9 9 9 9
2 2 1 1 1 1 1 1 1 2 2 1 2 2 2 1 0 1 1 1 1 1 1 2 2 2 2 3 3 4 5 6 6 7 7 8 8 8 8 9 10 10 10
1 1 2 1 1 1 2 2 1 1 1 1 1 1 1 2 2 1 1 1 1 1 2 2 2 2 2 2 3 4 4 5 7 7 8 8 8 8 8 9 10 11 10
1 2 2 1 1 1 1 1 1 2 1 1 1 2 2 1 1 2 1 1 1 1 2 2 3 3 3 2 3 4 5 5 6 7 8 8 8 8 9 9 9 10 11
1 1 1 1 1 1 1 1 1 1 2 1 0 0 1 2 1 1 2 1 1 2 2 2 2 3 3 3 4 5 5 6 6 7 7 8 8 9 9 10 10 10 11
1 1 1 1 1 1 1 1 2 1 1 1 1 0 0 0 1 1 2 2 2 1 2 2 2 2 3 3 4 5 6 6 7 7 8 8 8 9 9 10 11 11 11
1 1 1 1 1 1 1 1 1 1 1 1 1 1 1 1 1 1 2 2 2 2 2 1 2 3 3 4 5 5 6 7 7 7 8 9 8 9 10 11 11 11 11
1 1 1 1 0 0 0 1 1 1 1 1 1 0 1 1 1 1 1 2 2 2 2 1 2 2 3 3 4 5 6 6 6 7 8 8 9 9 9 10 11 12 11
0 0 1 1 0 0 0 1 1 0 1 1 0 0 0 1 1 1 2 1 2 2 2 3 2 2 2 3 4 5 5 6 6 6 7 8 8 9 9 10 10 10 10
0 1 1 1 1 1 1 1 1 0 0 0 0 0 0 1 1 1 1 2 2 2 3 2 2 2 2 3 4 4 5 6 6 6 7 7 8 9 9 10 10 10 10
1 1 1 1 1 1 1 1 1 0 0 0 0 0 1 1 1 1 1 1 2 2 3 2 2 3 3 3 4 4 5 6 6 6 7 7 8 9 8 9 10 10 10
1 1 1 1 1 1 1 0 0 0 0 1 1 1 1 2 1 1 1 1 2 2 3 3 2 3 3 4 3 3 3 3 3 6 6 7 7 7 8 8 9 10 10
1 1 1 1 1 1 1 0 1 1 1 1 2 1 2 2 2 2 1 2 2 3 3 4 3 2 3 3 3 3 3 3 3 5 6 6 7 7 7 8 9 9 10
1 1 1 0 1 1 1 1 1 1 1 2 2 3 3 2 2 2 2 2 2 2 2 3 3 2 3 3 3 3 3 2 3 4 5 5 6 7 7 8 8 8 9
1 0 0 0 1 1 1 1 1 1 1 2 2 3 3 3 4 3 2 3 2 2 2 2 3 2 2 2 2 2 3 2 3 3 3 4 5 5 6 6 6 7 7
1 0 0 1 1 1 1 1 1 1 1 2 3 3 3 3 3 3 2 3 2 2 2 2 2 2 2 2 2 2 3 3 3 2 3 3 2 2 3 4 5 6 6
0 0 0 1 1 1 2 2 1 1 1 2 2 3 3 3 4 4 5 4 3 3 3 2 3 3 4 3 3 3 2 2 3 1 2 3 2 3 2 2 2 4 5
0 0 0 0 1 2 2 2 1 1 1 1 2 2 3 3 4 3 4 4 3 4 5 4 4 5 4 4 3 3 3 3 4 2 1 3 2 3 3 2 2 3 4
1 1 1 1 1 2 2 2 2 1 1 2 2 2 3 4 4 3 3 3 3 3 4 3 4 5 5 4 4 4 4 4 4 2 2 3 2 3 3 2 2 3 3
1 1 1 1 1 2 3 2 2 1 1 3 3 3 3 3 5 3 2 3 4 4 3 3 4 5 5 5 3 2 2 2 3 2 1 2 2 2 2 2 1 2 3
2 1 1 1 1 2 3 2 2 0 1 2 3 3 4 4 5 4 2 2 3 4 4 4 4 4 4 4 3 3 3 3 2 2 2 2 1 1 2 1 1 1 1
Wind_Direction
63 41 22 19 25 32 44 57 75 88 92 93 125 152 170 175 172 182 211 215 213 213 212 207 201 201 200 199 203 207 210 215 215 210 209 206 202 200 200 203 203 203 205
79 61 34 26 27 36 49 70 83 88 90 96 97 122 157 166 168 182 202 227 220 206 206 210 206 206 204 204 208 211 210 211 209 206 207 206 203 198 198 199 200 202 204
80 75 54 27 14 31 57 66 68 79 97 97 88 103 130 163 169 176 189 200 223 221 209 204 211 215 215 213 214 218 217 216 214 206 201 200 197 198 201 203 203 204 205
60 68 53 18 11 38 57 76 69 78 73 86 87 71 83 124 167 178 186 180 181 217 224 211 217 223 222 220 220 222 221 218 214 209 205 201 199 199 200 203 206 206 208
55 78 52 16 35 54 52 73 77 97 100 98 108 92 79 137 178 196 206 204 202 211 229 245 241 236 234 234 231 226 222 221 217 214 210 207 204 203 204 206 208 208 209
53 77 72 29 65 75 58 59 85 81 91 101 83 58 41 356 135 217 230 216 211 216 225 241 252 251 246 246 244 239 229 222 218 219 213 211 210 209 209 211 210 212 213
47 61 48 41 56 81 78 78 93 81 59 74 86 44 19 13 335 250 234 217 237 238 231 232 235 244 251 254 254 256 247 229 220 215 212 213 215 215 216 216 215 217 216
49 60 64 57 59 78 62 58 81 95 54 53 99 94 5 352 345 299 240 218 240 241 244 236 228 233 244 246 258 257 256 241 231 224 220 221 221 222 221 221 220 220 219
61 61 70 74 62 78 87 69 87 122 127 56 67 131 149 235 307 328 303 257 243 232 252 253 237 239 240 245 253 256 252 250 242 238 233 228 225 224 224 225 225 223 222
48 61 75 81 80 80 80 73 84 107 132 141 59 40 157 161 163 314 326 323 287 257 255 261 258 245 242 244 251 255 249 245 246 245 241 237 232 228 226 228 229 230 228
19 31 80 86 81 75 80 70 68 74 112 137 149 160 156 75 139 193 281 314 324 291 267 257 254 250 244 241 246 253 252 249 250 247 245 243 240 235 233 232 232 233 233
359 355 69 80 81 75 75 86 98 94 97 109 117 122 141 159 192 193 237 275 292 298 296 274 263 258 248 241 247 261 254 248 247 248 248 245 243 243 242 238 237 236 236
348 344 26 54 72 167 115 109 105 101 123 132 158 181 184 209 190 183 205 258 277 291 293 278 260 261 253 248 253 255 255 255 252 250 251 251 248 247 246 244 243 239 238
242 31 78 71 27 51 75 93 94 140 94 136 142 169 251 270 219 195 196 216 276 291 293 285 290 262 262 254 259 253 256 258 256 253 253 253 254 250 248 246 244 239 236
106 71 79 80 57 63 68 93 83 26 86 94 271 195 218 282 268 250 226 211 217 262 285 283 283 290 279 260 262 253 253 260 257 252 251 251 253 254 251 246 240 234 230
44 57 48 59 55 54 58 95 84 25 73 299 240 256 268 264 263 254 248 240 221 220 254 271 271 293 299 290 274 255 252 265 262 260 255 253 254 255 254 247 238 232 227
78 59 51 53 44 33 36 81 270 157 211 289 285 265 269 260 268 273 253 243 232 217 242 276 274 286 284 290 298 279 262 257 264 266 265 261 256 253 252 249 239 233 227
81 74 52 40 23 14 360 315 262 267 241 261 267 264 270 265 263 262 253 252 243 227 226 264 284 286 279 287 292 292 287 272 264 271 269 266 261 256 253 249 243 237 231
74 70 87 65 346 325 319 295 261 266 262 259 258 255 262 261 269 264 253 256 255 245 227 246 276 279 285 301 309 304 302 293 277 274 267 262 263 260 256 251 247 238 232
123 92 309 267 279 291 289 287 278 278 279 276 264 260 261 252 253 254 251 251 252 252 238 247 270 284 287 302 303 302 307 301 291 295 291 281 277 270 263 255 247 239 231
165 194 314 319 316 295 284 312 281 268 287 301 298 287 276 275 270 259 259 245 239 245 249 257 269 282 287 294 285 283 287 301 293 280 289 287 286 281 274 260 245 235 227
110 91 304 298 312 311 347 359 22 329 315 303 306 307 299 290 298 288 278 269 244 232 237 242 255 260 267 267 274 275 276 291 292 279 280 293 295 286 289 285 259 224 216
142 79 299 315 294 302 345 356 9 24 328 304 301 312 315 319 323 303 293 288 266 256 236 227 244 252 258 254 256 266 261 259 263 274 273 283 289 288 289 290 265 225 214
193 203 255 278 287 311 350 355 2 12 322 307 301 293 297 312 319 324 318 312 294 280 262 244 244 253 257 257 241 250 255 267 273 272 248 266 279 281 295 294 266 235 212
231 235 251 263 282 309 340 347 15 350 319 315 314 312 308 307 322 337 331 316 315 312 300 282 269 273 276 274 264 244 252 256 275 272 230 247 273 282 286 282 283 230 219
202 217 280 283 269 291 322 342 16 339 320 317 320 320 322 318 323 338 325 307 307 308 320 323 319 313 300 290 268 230 231 237 252 265 235 223 256 274 294 297 293 277 233